Location: Aciu?a
(46.2833°N, 22.4500°E)
Time: 06:03:18
(UTC+00:00)

Cosmos 407 Rocket - Pass Details

Date: 25 October 2021
Orbit: 743 x 787 km, 74.0° (Epoch: 04 December)

Event Time Altitude Azimuth Distance (km) Brightness Sun altitude
Rises 17:34:22 0° 338° (NNW) 3,272 7.1 -22.7°
Reaches altitude 10° 17:36:45 10° 339° (NNW) 2,345 6.3 -23.1°
Maximum altitude 17:42:07 86° 69° (ENE) 794 3.4 -24.0°
Enters shadow 17:43:33 50° 154° (SSE) 992 3.8 -24.3°
